Regional Weather Roundup
Issued by NWS

Home | Current Version | Previous Version | Graphics & Text | Print | Product List | Glossary Off
Versions: 1 2 3 4 5 6 7 8 9 10 11 12 13 14 15 16 17 18 19 20 21 22 23 24 25 26 27 28 29 30 31 32 33 34 35 36 37 38 39 40 41 42 43 44 45 46 47 48 49 50

000
ASUS43 KDMX 301008
RWRIA

WEATHER ROUNDUP FOR IOWA
NATIONAL WEATHER SERVICE DES MOINES IA
500 AM CDT SAT APR 30 2016

NOTE: "FAIR" INDICATES FEW OR NO CLOUDS BELOW 12,000 FEET WITH NO
SIGNIFICANT WEATHER AND/OR OBSTRUCTIONS TO VISIBILITY.

* - THESE STATIONS ARE NOT NWS STATIONS...THUS NOT UNDER NWS
QUALITY CONTROL.  THEY ALSO DO NOT REPORT WEATHER SUCH
AS PRECIPITATION OR FOG.

IAZ001>003-012>014-020>022-031>034-043>046-301100-
   NORTHWEST IOWA

CITY           SKY/WX    TMP DP  RH WIND       PRES   REMARKS
CARROLL *      LGT RAIN  43  43 100 E23G30    29.85F
CHEROKEE *     CLOUDY    45  41  87 NE18G25   29.89F
DENISON *      LGT RAIN  43  41  93 E23G32    29.82S
LE MARS *      CLOUDY    45  41  87 NE15G22   29.90S
ORANGE CITY *  MOCLDY    43  39  87 E12G20    29.90S
SHELDON *      CLOUDY    45  41  87 NE20G26   29.91F
SIOUX CITY     RAIN      46  40  79 E18G26    29.85F
SPENCER        CLOUDY    44  38  79 NE18      29.94F
STORM LAKE *   MOCLDY    43  41  93 E23G32    29.88F
$$

IAZ055>058-069>071-079>083-090>094-301100-
   SOUTHWEST IOWA

CITY           SKY/WX    TMP DP  RH WIND       PRES   REMARKS
ATLANTIC *     LGT RAIN  45  43  93 NE20G28   29.79F
AUDUBON *      LGT RAIN  43  39  87 E20G26    29.83S
CLARINDA *       N/A    N/A N/A N/A MISG        N/A
COUNCIL BLFS * MIX PCPN  45  45 100 E18G29    29.75F
CRESTON *      CLOUDY    45  45 100 E24G33    29.78F
HARLAN  *      MIX PCPN  43  43 100 E20G32    29.83F
LAMONI         LGT RAIN  46  45  96 E15G29    29.76F
RED OAK *      LGT RAIN  46  45  93 E20G28    29.75F
SHENANDOAH *   HVY RAIN  46  46 100 E21G29    29.71F
$$

IAZ047>049-059>061-072>074-084-301100-
   CENTRAL IOWA

CITY           SKY/WX    TMP DP  RH WIND       PRES   REMARKS
AMES           CLOUDY    45  41  86 E15G25    29.90F
ANKENY *       LGT RAIN  45  45 100 E13       29.89S
BOONE *        CLOUDY    43  41  93 E20G26    29.88F
CHARITON *     DRIZZLE   46  45  93 E17       29.82F
DES MOINES     RAIN      45  42  89 E15G25    29.85F FOG
GRINNELL*      LGT RAIN  45  41  87 E21       29.91F
KNOXVILLE *    CLOUDY    45  43  93 E18G26    29.85F FOG
MARSHALLTOWN   CLOUDY    44  40  85 E20       29.92F
NEWTON *       CLOUDY    45  45 100 E17G26    29.89F FOG
PELLA *        RAIN      45  45 100 E9G26     29.88F
$$

IAZ004>006-015-016-023>025-035-036-301100-
   NORTH CENTRAL IOWA

CITY           SKY/WX    TMP DP  RH WIND       PRES   REMARKS
ALGONA *       CLOUDY    45  41  87 E14       29.95F
CLARION *      CLOUDY    45  41  87 E18       29.94F
ESTHERVILLE    CLOUDY    42  40  92 NE16      29.97F
FORT DODGE *   CLOUDY    43  37  81 E16       29.92F
MASON CITY     CLOUDY    44  39  82 NE13      30.00F
FOREST CITY *  CLOUDY    45  37  76 NE9G16    29.98F
WEBSTER CITY * CLOUDY    45  43  93 E15G24    29.91F
IOWA FALLS *   LGT RAIN  45  41  87 E17       29.95S
$$

IAZ007>011-017>019-026>030-037>042-050>054-066-301100-
   NORTHEAST IOWA

CITY           SKY/WX    TMP DP  RH WIND       PRES   REMARKS
CEDAR RAPIDS   CLOUDY    44  42  93 E17       29.95F
CHARLES CITY * CLOUDY    45  41  87 NE13      29.99F
CLINTON *      CLOUDY    45  41  86 E16       30.00F
DECORAH *      PTCLDY    43  39  87 E10       30.03S
DUBUQUE        CLOUDY    42  39  89 E15       30.00F
MONTICELLO *   CLOUDY    45  41  87 E10       30.00R
OELWEIN *      CLOUDY    43  43 100 E16       29.98F
WATERLOO       CLOUDY    44  39  82 E16       29.97F
$$

IAZ064-065-067-068-078-301100-
   EAST CENTRAL IOWA

CITY           SKY/WX    TMP DP  RH WIND       PRES   REMARKS
DAVENPORT      LGT RAIN  45  41  86 E16       29.98F FOG
IOWA CITY      CLOUDY    45  42  89 E9G20     29.98S
MT. PLEASANT * LGT RAIN  48  48 100 E15       29.91F
MUSCATINE *    CLOUDY    46  43  87 E13       29.97S HAZE
QUAD CITIES    CLOUDY    46  41  82 E13       29.97F HAZE
$$

IAZ062-063-075>077-085>089-095>099-301100-
   SOUTHEAST IOWA

CITY           SKY/WX    TMP DP  RH WIND       PRES   REMARKS
BURLINGTON     LGT RAIN  46  46 100 E15G23    29.90F FOG
FAIRFIELD *    DRIZZLE   45  45 100 E21G28    29.88F
FORT MADISON * LGT RAIN  45  45 100 E16       29.89F
KEOKUK *       CLOUDY    48  46  93 E16       29.87F FOG
OSKALOOSA *    LGT RAIN  45  43  93 E23       29.88F
OTTUMWA        LGT RAIN  45  44  97 E21G28    29.87F FOG
WASHINGTON *   LGT RAIN  45  45 100 E16       29.94F
$$

ABBREVIATIONS USED IN REMARKS
   TC - TEMPERATURES IN CELSIUS
  WCI - WIND CHILL INDEX
   HX - HEAT INDEX
  VSB - VISIBILITY
$$




USA.gov is the U.S. government's official web portal to all federal, state and local government web resources and services.